sat.trackr.live / text

‹ back to catalog

STARLINK-11582 [DTC]

NORAD 62985 · 2025-031E

PAYLOAD ACTIVE UNKNOWN

§ Identity

Operator
Country
US
Launch date
2025-02-11
Launch site
AFETR
Launch vehicle
Mass (kg)
RCS (m²)

Purposes: comms

External: N2YO · Heavens-Above · Gunter

§ Orbital elements

Epoch: 2026-05-24T17:53:03.812064Z

Period
91.67 min
Inclination
43.0000°
Eccentricity
0.0001310
Mean motion
15.70821203 rev/d
Perigee alt
355.7 km
Apogee alt
357.4 km
Semi-major
6,734.7 km
B*
1.2545e-3
RAAN
263.0509°
Arg perigee
264.2857°
Mean anomaly
95.7862°
Rev number
7,470

§ Raw data

STARLINK-11582 [DTC]1 62985U 25031E   26144.74518301  .00163591  00000+0  12545-2 0  99902 62985  43.0000 263.0509 0001310 264.2857  95.7862 15.70821203 74707

JSON: /api/v1/satellites/62985 · /tle

For live sub-satellite position, see the globe view (requires WebGL).

§ Visibility from observer

Set your observer location to see the next 7 days of passes ≥ 10°. The values pass through the URL so the page stays shareable.

No JS? Fill the form by hand. The geolocation button needs JavaScript.